This demonstration page uses our WeatherBlox Daily Observations layout. Learn more.

Left ArrowRight Arrow

Hourly Observations for June 5, 2021

Temp ( °F °C ) Dew Point ( °F °C ) Humidity (%) Winds ( mph kmh ) Pressure ( in mb ) Visibility ( mi km ) Precip ( " mm )
12:59 am 00:59 Mostly Clear 67 19.4 63 17.2 87 87 SSW 5 7 30.04 1017 10 16 0.00 0.00
1:59 am 01:59 Clear 67 19.4 64 17.8 91 91 SSW 3 6 30.03 1017 10 16 0.00 0.00
2:59 am 02:59 Clear 68 20 65 18.3 90 90 SW 5 7 30.02 1017 10 16 0.00 0.00
3:59 am 03:59 Mostly Clear 69 20.6 66 18.9 90 90 SW 5 7 30.02 1017 10 16 0.00 0.00
4:59 am 04:59 Clear 69 20.6 65 18.3 87 87 SW 5 7 30.02 1017 10 16 0.00 0.00
5:59 am 05:59 Partly Cloudy 68 20 65 18.3 90 90 Calm 30.03 1017 7 11 0.00 0.00
6:59 am 06:59 Partly Cloudy 71 21.7 67 19.4 87 87 WSW 3 6 30.05 1018 7 11 0.00 0.00
7:59 am 07:59 Partly Cloudy 73 22.8 68 20 84 84 W 5 7 30.07 1018 8 13 0.00 0.00
8:59 am 08:59 Partly Cloudy 75 23.9 68 20 79 79 VRB 3 6 30.08 1019 8 13 0.00 0.00
9:59 am 09:59 Partly Cloudy 78 25.6 68 20 71 71 WSW 5 7 30.09 1019 9 14 0.00 0.00
10:59 am 10:59 Partly Cloudy 82 27.8 67 19.4 60 60 Calm 30.09 1019 9 14 0.00 0.00
11:59 am 11:59 Mostly Cloudy 84 28.9 66 18.9 55 55 NW 6 9 30.09 1019 10 16 0.00 0.00
12:59 pm 12:59 Mostly Cloudy 85 29.4 65 18.3 51 51 VRB 5 7 30.08 1019 10 16 0.00 0.00
1:59 pm 13:59 Mostly Cloudy 87 30.6 68 20 53 53 SW 6 9 30.07 1018 10 16 0.00 0.00
2:59 pm 14:59 Mostly Cloudy 89 31.7 62 16.7 41 41 VRB 6 9 30.06 1018 10 16 0.00 0.00
3:59 pm 15:59 Mostly Cloudy 88 31.1 58 14.4 36 36 SSW 10 17 30.05 1018 10 16 0.00 0.00
4:59 pm 16:59 Mostly Cloudy 88 31.1 63 17.2 43 43 SW 10 17 30.04 1017 10 16 0.00 0.00
5:59 pm 17:59 Partly Cloudy 87 30.6 62 16.7 43 43 SSW 8 13 30.04 1017 10 16 0.00 0.00
6:59 pm 18:59 Sunny 86 30 62 16.7 45 45 SW 6 9 30.04 1017 10 16 0.00 0.00
7:59 pm 19:59 Mostly Sunny 82 27.8 61 16.1 49 49 SSW 6 9 30.05 1018 10 16 0.00 0.00
8:59 pm 20:59 Mostly Clear 80 26.7 67 19.4 64 64 S 7 11 30.06 1018 10 16 0.00 0.00
9:59 pm 21:59 Clear 79 26.1 69 20.6 72 72 SSW 8 13 30.08 1019 10 16 0.00 0.00
10:59 pm 22:59 Clear 78 25.6 69 20.6 74 74 SSW 7 11 30.09 1019 10 16 0.00 0.00
11:59 pm 23:59 Clear 76 24.4 69 20.6 79 79 SSW 7 11 30.09 1019 9 14 0.00 0.00

Powered by AerisWeather